Location: Overspoor
(51.4747°N, 5.6641°E)
Time: 02:41:33
(UTC+02:00)

MOZHAYETS 4 - Visible Passes

Search period start: 28 June 2022 00:00
Search period end: 08 July 2022 00:00
Orbit: 660 x 679 km, 98.2° (Epoch: 27 June)

Date Brightness Start Highest point End Pass type
(mag) Time Alt. Az. Time Alt. Az. Time Alt. Az.
28 Jun 9.1 03:01:40 10° SE 03:05:56 38° ENE 03:10:11 10° N visible
29 Jun 10.5 01:59:58 10° E 02:02:02 13° NE 02:04:06 10° NNE visible
29 Jun 8.0 03:33:44 10° SSE 03:38:19 71° ENE 03:42:56 10° N visible
30 Jun 10.0 02:30:38 10° ESE 02:34:10 22° ENE 02:37:40 10° N visible
30 Jun 7.8 04:06:18 10° S 04:10:52 60° WSW 04:15:27 10° NNW visible
01 Jul 9.1 03:02:09 10° SE 03:06:25 38° ENE 03:10:41 10° N visible
02 Jul 10.5 02:00:27 10° E 02:02:31 13° NE 02:04:36 10° NNE visible
02 Jul 8.0 03:34:14 10° SSE 03:38:49 72° ENE 03:43:25 10° N visible
03 Jul 10.0 02:31:08 10° ESE 02:34:39 22° ENE 02:38:10 10° N visible
03 Jul 7.8 04:06:48 10° S 04:11:22 60° W 04:15:56 10° NNW visible
04 Jul 9.1 03:02:39 10° SE 03:06:54 38° ENE 03:11:10 10° N visible
04 Jul 8.6 04:39:57 10° SSW 04:44:03 31° W 04:48:09 10° NNW visible
05 Jul 10.5 02:00:55 10° E 02:03:00 13° NE 02:05:05 10° NNE visible
05 Jul 8.0 03:34:43 10° SSE 03:39:18 72° ENE 03:43:54 10° N visible
06 Jul 10.0 02:31:36 10° ESE 02:35:07 22° ENE 02:38:38 10° N visible
06 Jul 7.8 04:07:18 10° S 04:11:51 59° WSW 04:16:24 10° NNW visible
07 Jul 9.1 03:03:07 10° SE 03:07:22 38° ENE 03:11:38 10° N visible
07 Jul 8.6 04:40:27 10° SSW 04:44:32 31° W 04:48:37 10° NNW visible
